Location: Newark
(45.0500°N, 41.9667°E)
Time: 05:39:33
(UTC+00:00)

Starlink (trailer) - Pass Details

Date: 30 July 2019
Orbit: 549 x 550 km, 53.0° (Epoch: 20 August)

Event Time Altitude Azimuth Distance (km) Brightness Sun altitude
Rises 20:30:32 0° 269° (W) 2,715 7.3 -25.6°
Reaches altitude 10° 20:32:55 10° 279° (W) 1,823 6.5 -25.7°
Maximum altitude 20:36:42 33° 345° (NNW) 929 5.3 -25.8°
Drops below altitude 10° 20:40:30 10° 51° (NE) 1,827 6.6 -25.9°
Sets 20:42:54 0° 61° (ENE) 2,723 7.4 -26.0°
